Hourly Weather Campo Grande

Today, 15 August, Saturday

Time Temperature Precipitation Wind Pressure Humidity
00:00 +27°C° 0 mm 3 mps 707 mmHg 33%
01:00 +27°C° 0 mm 3 mps 707 mmHg 33%
02:00 +27°C° 0 mm 3 mps 707 mmHg 33%
03:00 +26°C° 0 mm 3 mps 707 mmHg 35%
04:00 +25°C° 0 mm 3 mps 707 mmHg 37%
05:00 +24°C° 0 mm 2 mps 707 mmHg 38%
06:00 +26°C° 0 mm 3 mps 707 mmHg 34%
07:00 +28°C° 0 mm 4 mps 708 mmHg 31%
08:00 +30°C° 0 mm 5 mps 709 mmHg 27%
09:00 +33°C° 0 mm 5 mps 709 mmHg 24%
10:00 +35°C° 0 mm 6 mps 709 mmHg 22%
11:00 +38°C° 0 mm 6 mps 709 mmHg 19%
12:00 +38°C° 0 mm 6 mps 708 mmHg 19%
13:00 +39°C° 0 mm 6 mps 707 mmHg 19%
14:00 +39°C° 0 mm 6 mps 706 mmHg 19%
15:00 +37°C° 0 mm 5 mps 706 mmHg 20%
16:00 +35°C° 0 mm 3 mps 706 mmHg 22%
17:00 +34°C° 0 mm 2 mps 706 mmHg 24%
18:00 +32°C° 0 mm 2 mps 706 mmHg 28%
19:00 +30°C° 0 mm 2 mps 707 mmHg 31%
20:00 +29°C° 0 mm 1 mps 707 mmHg 35%
21:00 +28°C° 0 mm 2 mps 707 mmHg 38%
22:00 +27°C° 0 mm 2 mps 707 mmHg 40%
23:00 +26°C° 0 mm 2 mps 707 mmHg 43%

Tomorrow, 16 August, Sunday

Time Temperature Precipitation Wind Pressure Humidity
00:00 +26°C° 0 mm 2 mps 707 mmHg 46%
01:00 +25°C° 0 mm 3 mps 707 mmHg 50%
02:00 +24°C° 0 mm 3 mps 707 mmHg 53%
03:00 +24°C° 0 mm 3 mps 707 mmHg 56%
04:00 +22°C° 0 mm 3 mps 707 mmHg 60%
05:00 +22°C° 0 mm 3 mps 707 mmHg 63%
06:00 +24°C° 0 mm 3 mps 708 mmHg 61%
07:00 +23°C° 0 mm 4 mps 708 mmHg 59%
08:00 +25°C° 0 mm 4 mps 709 mmHg 56%
09:00 +27°C° 0 mm 3 mps 709 mmHg 49%
10:00 +29°C° 0 mm 3 mps 709 mmHg 42%
11:00 +33°C° 0 mm 3 mps 709 mmHg 35%
12:00 +34°C° 0 mm 2 mps 709 mmHg 32%
13:00 +35°C° 0 mm 2 mps 708 mmHg 29%
14:00 +35°C° 0 mm 1 mps 707 mmHg 26%
15:00 +34°C° 0 mm 2 mps 707 mmHg 31%
16:00 +33°C° 0 mm 3 mps 707 mmHg 37%
17:00 +30°C° 0 mm 4 mps 706 mmHg 42%
18:00 +28°C° 0 mm 4 mps 707 mmHg 52%
19:00 +27°C° 0 mm 4 mps 707 mmHg 61%
20:00 +25°C° 0 mm 4 mps 707 mmHg 70%
21:00 +23°C° 0 mm 4 mps 707 mmHg 73%
22:00 +24°C° 0 mm 3 mps 708 mmHg 75%
23:00 +22°C° 0 mm 3 mps 708 mmHg 78%

Day after tomorrow, 17 August, Monday

Time Temperature Precipitation Wind Pressure Humidity
00:00 +22°C° 0 mm 4 mps 708 mmHg 78%
01:00 +22°C° 0 mm 4 mps 707 mmHg 78%
02:00 +21°C° 0 mm 5 mps 707 mmHg 78%
03:00 +21°C° 0 mm 5 mps 707 mmHg 79%
04:00 +21°C° 0 mm 5 mps 707 mmHg 79%
05:00 +20°C° 0 mm 5 mps 707 mmHg 80%
06:00 +21°C° 0 mm 5 mps 708 mmHg 75%
07:00 +21°C° 0 mm 6 mps 708 mmHg 71%
08:00 +22°C° 0 mm 6 mps 709 mmHg 67%
09:00 +23°C° 0 mm 5 mps 709 mmHg 62%
10:00 +25°C° 0 mm 4 mps 709 mmHg 57%
11:00 +26°C° 0 mm 3 mps 709 mmHg 51%
12:00 +27°C° 0 mm 4 mps 709 mmHg 49%
13:00 +28°C° 0 mm 4 mps 708 mmHg 46%
14:00 +29°C° 0 mm 4 mps 708 mmHg 44%
15:00 +28°C° 0.1 mm 5 mps 707 mmHg 49%
16:00 +27°C° 0.1 mm 5 mps 707 mmHg 55%
17:00 +24°C° 0.1 mm 6 mps 706 mmHg 60%
18:00 +23°C° 0 mm 5 mps 707 mmHg 64%
19:00 +23°C° 0 mm 5 mps 707 mmHg 68%
20:00 +22°C° 0 mm 4 mps 707 mmHg 71%
21:00 +22°C° 0 mm 4 mps 707 mmHg 72%
22:00 +21°C° 0 mm 5 mps 707 mmHg 73%
23:00 +21°C° 0 mm 5 mps 707 mmHg 73%

18 August, Tuesday

Time Temperature Precipitation Wind Pressure Humidity
00:00 +21°C° 0 mm 5 mps 707 mmHg 74%
01:00 +21°C° 0 mm 6 mps 706 mmHg 76%
02:00 +20°C° 0 mm 6 mps 706 mmHg 77%
03:00 +20°C° 0 mm 6 mps 706 mmHg 77%
04:00 +20°C° 0 mm 7 mps 706 mmHg 77%
05:00 +20°C° 0 mm 7 mps 706 mmHg 77%
06:00 +21°C° 0 mm 7 mps 706 mmHg 73%
07:00 +21°C° 0 mm 7 mps 706 mmHg 69%
08:00 +22°C° 0 mm 7 mps 707 mmHg 65%
09:00 +26°C° 0 mm 6 mps 707 mmHg 56%
10:00 +29°C° 0 mm 6 mps 707 mmHg 46%
11:00 +33°C° 0 mm 5 mps 707 mmHg 37%
12:00 +34°C° 0 mm 6 mps 706 mmHg 31%
13:00 +36°C° 0 mm 6 mps 706 mmHg 25%
14:00 +39°C° 0 mm 7 mps 705 mmHg 20%
15:00 +37°C° 0 mm 5 mps 705 mmHg 21%
16:00 +36°C° 0 mm 4 mps 704 mmHg 23%
17:00 +35°C° 0 mm 3 mps 704 mmHg 25%
18:00 +31°C° 0 mm 3 mps 704 mmHg 35%
19:00 +28°C° 0 mm 3 mps 705 mmHg 45%
20:00 +26°C° 0 mm 3 mps 705 mmHg 56%
21:00 +25°C° 0 mm 3 mps 705 mmHg 58%
22:00 +24°C° 0 mm 3 mps 705 mmHg 60%
23:00 +24°C° 0 mm 3 mps 705 mmHg 63%

19 August, Wednesday

Time Temperature Precipitation Wind Pressure Humidity
00:00 +22°C° 0 mm 3 mps 705 mmHg 67%
01:00 +21°C° 0 mm 3 mps 704 mmHg 71%
02:00 +21°C° 0 mm 3 mps 704 mmHg 75%
03:00 +21°C° 0 mm 3 mps 704 mmHg 71%
04:00 +22°C° 0 mm 4 mps 704 mmHg 66%
05:00 +23°C° 0 mm 4 mps 704 mmHg 62%
06:00 +25°C° 0 mm 3 mps 705 mmHg 55%
07:00 +27°C° 0 mm 3 mps 706 mmHg 47%
08:00 +29°C° 0 mm 3 mps 707 mmHg 40%
09:00 +30°C° 0 mm 3 mps 707 mmHg 38%
10:00 +31°C° 0 mm 3 mps 707 mmHg 36%
11:00 +33°C° 0 mm 3 mps 707 mmHg 34%
12:00 +32°C° 0 mm 5 mps 706 mmHg 39%
13:00 +30°C° 0 mm 6 mps 706 mmHg 44%
14:00 +30°C° 0 mm 7 mps 705 mmHg 49%
15:00 +27°C° 0 mm 7 mps 706 mmHg 57%
16:00 +24°C° 0 mm 7 mps 706 mmHg 65%
17:00 +21°C° 0 mm 7 mps 706 mmHg 73%
18:00 +20°C° 0 mm 7 mps 707 mmHg 75%
19:00 +18°C° 0 mm 7 mps 708 mmHg 76%
20:00 +17°C° 0 mm 7 mps 709 mmHg 78%
21:00 +16°C° 0 mm 7 mps 709 mmHg 78%
22:00 +16°C° 0 mm 7 mps 709 mmHg 77%
23:00 +15°C° 0 mm 7 mps 710 mmHg 76%

20 August, Thursday

Time Temperature Precipitation Wind Pressure Humidity
00:00 +15°C° 0 mm 6 mps 709 mmHg 75%
01:00 +15°C° 0 mm 6 mps 709 mmHg 73%
02:00 +15°C° 0 mm 5 mps 709 mmHg 71%
03:00 +15°C° 0 mm 4 mps 709 mmHg 73%
04:00 +15°C° 0 mm 4 mps 710 mmHg 74%
05:00 +16°C° 0 mm 3 mps 710 mmHg 76%
06:00 +16°C° 0 mm 3 mps 711 mmHg 75%
07:00 +15°C° 0 mm 4 mps 711 mmHg 74%
08:00 +17°C° 0 mm 4 mps 712 mmHg 74%
09:00 +17°C° 0 mm 4 mps 712 mmHg 73%
10:00 +16°C° 0 mm 5 mps 712 mmHg 72%
11:00 +17°C° 0 mm 5 mps 712 mmHg 72%
12:00 +17°C° 0 mm 5 mps 712 mmHg 71%
13:00 +17°C° 0 mm 5 mps 712 mmHg 71%
14:00 +16°C° 0 mm 5 mps 711 mmHg 71%
15:00 +15°C° 0.3 mm 6 mps 712 mmHg 76%
16:00 +14°C° 0.3 mm 6 mps 712 mmHg 81%
17:00 +13°C° 0.3 mm 6 mps 712 mmHg 86%
18:00 +11°C° 0.2 mm 6 mps 713 mmHg 87%
19:00 +11°C° 0.2 mm 6 mps 713 mmHg 87%
20:00 +10°C° 0.2 mm 7 mps 714 mmHg 87%
21:00 +10°C° 0.9 mm 6 mps 714 mmHg 87%
22:00 +9°C° 0.9 mm 6 mps 714 mmHg 87%
23:00 +9°C° 0.9 mm 6 mps 714 mmHg 88%
Show more